Weather History for KDEW - April, 2013

Change the Weather History Date:

Saturday, April 20, 2013

  Actual Average Record
Temperature  
Mean Temperature 48 °F 46 °F  
Max Temperature 61 °F 59 °F 75 °F (2009)
Min Temperature 34 °F 32 °F 21 °F (2008)
Degree Days  
Heating Degree Days 17 19  
Month to date heating degree days 369 423  
Since 1 July heating degree days 6274 6630  
Cooling Degree Days 0 0  
Month to date cooling degree days 0 0  
Year to date cooling degree days 0 0  
Moisture  
Dew Point 36 °F    
Average Humidity 66    
Maximum Humidity 100    
Minimum Humidity 32    
Precipitation  
Precipitation 0.00 in 0.05 in 0.53 in (2004)
Month to date precipitation 1.69 1.16  
Year to date precipitation 5.17 7.48  
Sea Level Pressure  
Sea Level Pressure 30.00 in    
Wind  
Wind Speed 10 mph (SSW)    
Max Wind Speed 28 mph    
Max Gust Speed 35 mph    
Visibility 7 miles    
Events Fog    
T = Trace of Precipitation, MM = Missing Value Source: NWS Daily Summary

Daily Weather History Graph

Daily Weather History Graph

Search for Another Location

Airport or City:

Trip Planner

Search our weather history database for the weather conditions in past years. The results will help you decide how hot, cold, wet, or windy it might be!

Date:

Astronomy

Apr. 20, 2013 Rise Set
Actual Time 5:50 AM PDT 7:47 PM PDT
Civil Twilight 5:17 AM PDT 8:21 PM PDT
Nautical Twilight 4:36 AM PDT 9:02 PM PDT
Astronomical Twilight 3:50 AM PDT 9:47 PM PDT
Moon 2:13 PM PDT (4/20) 3:06 AM PDT (4/20)
Length of Visible Light 15h 03m
Length of Day
13h 57m
Waxing Gibbous, 72% of the Moon is Illuminated
Apr 20
Waxing Gibbous
Apr 25
Full
May 2
Last Quarter
May 9
New
May 17
First Quarter

Hourly Weather History & Observations

Time (PDT) Temp. Windchill Dew Point Humidity Pressure Visibility Wind Dir Wind Speed Gust Speed Precip Events Conditions
12:32 AM 41.0 °F 38.0 °F 39.2 °F 93% 29.94 in 1.5 mi NNW 4.6 mph - N/A   Partly Cloudy
12:40 AM 39.2 °F 34.2 °F 37.4 °F 93% 29.94 in 0.5 mi North 6.9 mph - N/A Fog Fog
12:45 AM 39.2 °F 37.0 °F 39.2 °F 100% 29.94 in 1.0 mi North 3.5 mph - N/A   Mist
12:53 AM 39.9 °F 37.8 °F 39.0 °F 97% 29.97 in 1.0 mi North 3.5 mph - N/A   Mist
1:01 AM 37.4 °F 33.8 °F 37.4 °F 100% 29.95 in 0.5 mi NE 4.6 mph - N/A Fog Fog
1:09 AM 39.2 °F 35.9 °F 39.2 °F 100% 29.95 in 1.2 mi ENE 4.6 mph - N/A   Scattered Clouds
1:12 AM 39.2 °F 35.9 °F 39.2 °F 100% 29.95 in 3.0 mi East 4.6 mph - N/A   Partly Cloudy
1:53 AM 39.9 °F 36.7 °F 39.0 °F 97% 29.97 in 10.0 mi SSE 4.6 mph - N/A   Clear
2:43 AM 37.4 °F 33.8 °F 37.4 °F 100% 29.97 in 2.0 mi West 4.6 mph - N/A   Mostly Cloudy
2:47 AM 37.4 °F 34.9 °F 35.6 °F 93% 29.97 in 0.8 mi West 3.5 mph - N/A   Overcast
2:53 AM 37.9 °F 35.5 °F 37.0 °F 97% 29.99 in 0.2 mi West 3.5 mph - N/A Fog Fog
3:21 AM 35.6 °F - 35.6 °F 100% 29.97 in 2.5 mi Calm Calm - N/A   Overcast
3:28 AM 35.6 °F - 35.6 °F 100% 29.98 in 6.0 mi Calm Calm - N/A   Mostly Cloudy
3:42 AM 35.6 °F - 33.8 °F 93% 29.98 in 1.5 mi Calm Calm - N/A   Partly Cloudy
3:53 AM 36.0 °F 33.3 °F 35.1 °F 97% 30.00 in 5.0 mi SE 3.5 mph - N/A   Partly Cloudy
4:53 AM 35.1 °F 30.1 °F 34.0 °F 96% 30.03 in 10.0 mi SSE 5.8 mph - N/A   Clear
5:53 AM 36.0 °F 30.3 °F 34.0 °F 93% 30.04 in 10.0 mi South 6.9 mph - N/A   Overcast
6:53 AM 37.9 °F 33.5 °F 36.0 °F 93% 30.06 in 10.0 mi SSE 5.8 mph - N/A   Overcast
7:53 AM 39.9 °F 34.5 °F 37.0 °F 89% 30.08 in 10.0 mi SSE 8.1 mph - N/A   Overcast
8:53 AM 41.0 °F 34.7 °F 37.9 °F 89% 30.08 in 10.0 mi South 10.4 mph - N/A   Overcast
9:37 AM 42.8 °F 36.6 °F 37.4 °F 81% 30.06 in 10.0 mi South 11.5 mph - N/A   Mostly Cloudy
9:53 AM 44.1 °F 38.1 °F 39.0 °F 82% 30.08 in 10.0 mi South 11.5 mph - N/A   Overcast
10:04 AM 44.6 °F 39.2 °F 37.4 °F 76% 30.06 in 10.0 mi South 10.4 mph - N/A   Overcast
10:20 AM 44.6 °F 38.8 °F 37.4 °F 76% 30.06 in 10.0 mi South 11.5 mph - N/A   Overcast
10:53 AM 48.0 °F - 39.0 °F 71% 30.08 in 10.0 mi South 8.1 mph - N/A   Overcast
11:53 AM 55.0 °F - 39.9 °F 57% 30.04 in 10.0 mi South 11.5 mph - N/A   Scattered Clouds
12:53 PM 57.0 °F - 36.0 °F 45% 30.02 in 10.0 mi SSW 19.6 mph 25.3 mph N/A   Mostly Cloudy
1:53 PM 59.0 °F - 35.1 °F 41% 30.00 in 10.0 mi WSW 19.6 mph 29.9 mph N/A   Mostly Cloudy
2:53 PM 57.9 °F - 32.0 °F 37% 29.99 in 10.0 mi SW 13.8 mph 24.2 mph N/A   Overcast
3:53 PM 59.0 °F - 30.9 °F 35% 29.97 in 10.0 mi WSW 19.6 mph 31.1 mph N/A   Overcast
4:53 PM 61.0 °F - 30.0 °F 31% 29.96 in 10.0 mi SW 26.5 mph 34.5 mph N/A   Overcast
5:53 PM 57.9 °F - 30.0 °F 35% 29.96 in 10.0 mi SW 17.3 mph 24.2 mph N/A   Mostly Cloudy
6:53 PM 57.0 °F - 30.0 °F 36% 29.96 in 10.0 mi WSW 15.0 mph - N/A   Overcast
7:53 PM 55.0 °F - 30.9 °F 40% 29.97 in 10.0 mi WSW 11.5 mph - N/A   Overcast
8:53 PM 53.1 °F - 30.9 °F 43% 30.00 in 10.0 mi West 5.8 mph - N/A   Overcast
9:53 PM 48.0 °F - 35.1 °F 61% 30.04 in 10.0 mi NNE 3.5 mph - N/A   Mostly Cloudy
10:53 PM 41.0 °F 37.1 °F 35.1 °F 79% 30.05 in 10.0 mi NW 5.8 mph - N/A   Mostly Cloudy
11:53 PM 41.0 °F 39.0 °F 36.0 °F 82% 30.05 in 10.0 mi NNW 3.5 mph - N/A   Overcast